Voltar ao catálogo

SL-3 DEB

AtivoSSO
NORAD 14229·DEBRIS·🇷🇺 Russia

Lançado Jul 24, 1983 de Baikonur Cosmodrome

Loading…

Próximas Passagens (próximas 24 horas)

TLE

AtualizadoSource: Space-Track

Época: Sep 14, 2026, 11:00 UTC

1 14229U 83075D   26257.45887013  .00001770  00000-0  11110-3 0  9991
2 14229  97.8967 256.6595 0028230  28.7171 125.8485 15.10395837344900

Acompanhe SL-3 DEB em tempo real com AllMySat

Download on the App Store